www.pogodaiklimat.ru

Погода и климат >> Архив погоды >> Россия >> Красноярский край >> Верхнеимбатск


АРХИВ ПОГОДЫ в Верхнеимбатске

Время (UTC), дата Ветер
(напр.,м/с)
 
Видим.   Явления Облачность Т
(С)
Тd
(С)
f
(%)
Тe
(С)
Тes
(С)
Комфортность P
(гПа)
Po
(гПа)
Тmin
(С)
Tmax
(С)
R
(мм)
R24
(мм)
S
(см)
21 19.03 В 1 н/о ясно -17.0 -18.9 85 -20 -20 1028.4 1022.3
00 20.03 ЮВ 1 н/о 10/0
[Ac As]
-13.6 -16.3 80 -16 -16 1028.3 1022.2 -18.6 89
03 20.03 ЮВ 1 20 км 10/0
[Ac trans Cs]
-9.0 -14.0 67 -11 -10 1028.8 1022.8
06 20.03 ЮВ 2 20 км 10/3 1000 м
[Sc Cc]
-4.2 -10.6 61 -8 -5 1028.0 1022.1
09 20.03 ЮВ 1 20 км 10/4 1000 м
[Sc Ac trans Ci fib]
-0.4 -9.2 51 -2 -1 1025.9 1020.1
12 20.03 ЮВ 1 20 км 10/3 1000 м
[Sc Ac lent Ci fib]
-1.2 -7.4 63 -3 -3 1026.1 1020.3 +0.1
15 20.03 ЮВ 2 н/о слаб. снег 10/10 600 м
[Sc]
-2.1 -3.9 87 -6 -6 1025.2 1019.4
18 20.03 ЮВ 2 н/о в посл. час снег 10/10 600 м
[Sc]
-1.8 -3.6 87 -6 -6 1023.1 1017.3
21 20.03 ЮВ 3 н/о 10/3 600 м
[Sc Ac und]
-1.2 -5.9 70 -6 -6 1021.6 1015.8
00 21.03 ЮВ 3 н/о 10/0
[Ac As]
-1.4 -6.5 68 -6 -6 1019.5 1013.8 -2.1 0.2 90
03 21.03 ЮВ 3 20 км 10/0
[Ac As]
-2.0 -7.0 69 -7 -6 1018.2 1012.5 -2.4
06 21.03 ЮВ 3 20 км 10/0
[Cs]
+0.6 -8.0 52 -3 0 1016.2 1010.5
09 21.03 ЮВ 2 20 км 10/0
[Ac As Cc]
+2.4 -10.4 38 0 +2 1014.7 1009.0
12 21.03 ЮВ 2 10 км 10/0
[Ac As]
+2.2 -10.8 38 -0 -0 1013.3 1007.7 +2.6
15 21.03 СЗ 2 н/о 10/0
[As op]
+1.0 -11.1 40 -2 -2 1013.0 1007.3
18 21.03 ЮЗ 2
{11}
н/о слаб. снег 10/0
[As op]
-2.4 -4.3 87 -6 -6 1013.2 1007.5
21 21.03 В 1 н/о {снег} 10/0
[As trans Cs]
-2.6 -4.5 87 -5 -5 1011.7 1006.0
00 22.03 ЮВ 1 н/о слаб. снег 10/0
[As op]
-2.8 -4.8 86 -5 -5 1010.4 1004.7 -3.2 4 90
03 22.03 ЮВ 1 10 км слаб. снег 10/0
[As op]
-2.3 -4.2 87 -5 -4 1009.9 1004.2
06 22.03 З 2 10 км слаб. снег 10/0
[As op]
-1.2 -4.8 76 -5 -4 1009.7 1004.0
09 22.03 З 3 20 км {снег} 10/10
[Cb cap]
-1.4 -4.7 78 -6 -6 1011.0 1005.3
12 22.03 З 2 20 км {снег} 10/10 600 м
[Cb cap]
-1.6 -5.0 78 -5 -5 1013.3 1007.6 -1.2 1
15 22.03 ЮЗ 1 н/о 10/10 600 м
[Sc]
-3.0 -5.7 82 -5 -5 1015.5 1009.6
18 22.03 ЮВ 1 н/о 10/10 600 м
[Sc]
-2.4 -4.6 85 -5 -5 1015.8 1010.1
21 22.03 ЮВ 2 н/о 10/10 600 м
[Sc]
-1.0 -2.9 87 -5 -5 1016.0 1010.3
00 23.03 Ю 1 н/о {ливн. осадки} 10/9 600 м
[Cb cap As trans]
-2.6 -3.9 91 -5 -5 1016.5 1010.8 -3.7 0.3 91
03 23.03 З 2 20 км 9/9 600 м
[Cb cap]
-2.4 -5.0 82 -6 -6 1017.4 1011.7
06 23.03 З 1 20 км 8/4 600 м
[Cb cap Ac trans]
+1.0 -5.0 64 -0 +2 1017.8 1012.1
09 23.03 З 1 20 км 10/10 600 м
[Cb cap]
+0.6 -4.0 71 -1 -1 1017.6 1011.9
12 23.03 Ю 1 20 км 9/3 600 м
[Cb cap Ac lent Ci fib]
-0.4 -5.5 68 -2 -2 1017.6 1011.9 +2.3
15 23.03 ЮВ 1 н/о 10/0
[Ac As]
-2.0 -4.1 86 -4 -4 1017.2 1011.5
18 23.03 ЮВ 1 н/о 10/0
[As op]
-2.2 -4.4 85 -4 -4 1016.6 1010.9
21 23.03 ЮВ 1 н/о 10/0
[As op]
-3.6 -4.7 92 -6 -6 1016.1 1010.2
00 24.03 ЮВ 1 н/о {снег} 10/0
[As op]
-4.2 -5.8 89 -7 -7 1016.0 1010.1 -4.2 0.0 89
03 24.03 ЮВ 1 10 км слаб. снег 10/3 600 м
[Cu hum As op]
-3.6 -5.4 87 -6 -6 1016.0 1010.1
06 24.03 З 2 10 км слаб. ливневой снег 10/10 600 м
[Cb cap]
-1.5 -4.5 80 -5 -5 1015.9 1010.2
09 24.03 З 3 20 км {ливн. осадки} 10/10 600 м
[Cb cap]
-1.1 -4.7 77 -6 -6 1016.3 1010.6
12 24.03 З 3 20 км дождь со снегом 8/8 600 м
[]
-1.2 -5.9 70 -6 -6 1016.6 1010.9 -0.8 0.4
15 24.03 З 4 н/о {ливн. осадки} 10/10 600 м
[Cb cap]
-3.5 -7.9 72 -9 -9 1017.9 1012.0
18 24.03 З 2 н/о {ливн. осадки} 8/8 600 м
[Sc]
-4.3 -7.7 77 -8 -8 1018.2 1012.3
21 24.03 З 1 н/о ясно -7.6 -9.8 84 -10 -10 1019.7 1013.8
00 25.03 СЗ 1 20 км ясно -11.2 -12.5 90 -13 -13 1021.3 1015.3 -11.2 0.0 89
03 25.03 штиль 0 20 км 3/0
[Ci fib]
-9.0 -10.6 88 -10 -6 1023.8 1017.8 -12.2
06 25.03 ЮВ 1 20 км 6/1 600 м
[Cu med, cong Ci fib]
-2.4 -8.4 63 -4 +1 1024.7 1018.9
09 25.03 ЮЗ 1 20 км 8/3 600 м
[Cu med, cong Cs]
+2.0 -7.3 50 +1 +3 1025.6 1019.8
12 25.03 В 1 20 км 8/1 600 м
[Sc Ci fib]
+1.0 -9.3 46 0 0 1027.0 1021.2 +3.6
15 25.03 ЮВ 2 н/о 3/0
[Ac trans]
-2.0 -9.1 58 -5 -5 1027.5 1021.7
18 25.03 ЮВ 1 н/о ясно -4.4 -9.1 70 -6 -6 1027.9 1022.0
21 25.03 ЮВ 1 н/о 3/0
[Ci fib]
-8.0 -9.8 87 -10 -10 1029.4 1023.4
00 26.03 В 1 20 км 8/0
[Ci fib]
-9.3 -10.9 88 -12 -12 1030.3 1024.3 -9.9 89
03 26.03 В 1 20 км 10/0
[Ac As]
-5.1 -8.4 78 -7 -6 1031.0 1025.1
06 26.03 ЮВ 2 20 км 4/0
[Ac trans]
+0.4 -7.4 56 -3 +2 1030.5 1024.7
09 26.03 ЮВ 2 20 км 1/1 1000 м
[Cu hum]
+4.1 -8.5 39 +2 +5 1029.8 1024.1
12 26.03 ЮВ 2 20 км ясно +3.9 -7.8 42 +2 +2 1028.9 1023.2 +4.4
15 26.03 В 2 н/о ясно -0.8 -8.5 56 -4 -4 1028.4 1002.6
18 26.03 ЮВ 3 н/о ясно -1.8 -8.3 61 -6 -6 1028.1 1022.3

 

Местоположение метеостанции Верхнеимбатск (Красноярский край, Россия): широта 63.15 долгота 87.95 высота над уровнем моря 45 м.

В архиве по умолчанию представлена погода в Верхнеимбатске за последнюю неделю. Архивные данные за месяц целиком и за предыдущие месяцы, начиная с января 2011 года, Вы можете получить, выбрав интересующий диапазон дат из раскрывающегося списка и нажав кнопку "Ввод!".


*Определитесь, кто Вы:
робот инопланетянин человек

Внимание! Время в таблицах - всемирное. Для получения местного времени необходимо прибавить поправку, которая равна 7 ч.

Смотрите также архив погоды в соседних городах и на ближайших метеорологических станциях:

Погода в Бахте (Красноярский край, Россия) (93 км)
Погода в Келлоге (Красноярский край, Россия) (113 км)
Погода в Верещагино (Красноярский край, Россия) (122 км)
Погода в Бору (Красноярский край, Россия) (203 км)
Погода в Кузьмовке (Эвенкия, Россия) (232 км)
Погода в Ворогово (Красноярский край, Россия) (251 км)
Погода в Туруханске (Красноярский край, Россия) (293 км)
Погода в Большом Пороге (Эвенкия, Россия) (294 км)
Погода в Тольке (Ямало-Ненецкий АО, Россия) (305 км)
Погода в Тутончанах (Эвенкия, Россия) (310 км)

Пояснения к столбцам:

Ветер - указаны скорость ветра в м/с - средняя за 10 мин, порывы в срок и между сроками (в фигурных скобках) и направление, откуда дует ветер: С - северный, СВ - северо-восточный, В - восточный, ЮВ - юго-восточный, Ю - южный, ЮЗ - юго-западный, З - западный, СЗ - северо-западный.
Видимость - горизонтальная дальность видимости в метрах или километрах. При видимости от 1 до 10 км при отсутствии осадков обычно наблюдается дымка, при ухудшении видимости до 1 км и менее - туман. В сухую погоду видимость может ухудшаться дымом, пылью или мглою.
Явления - указаны атмосферные явления, наблюдавшиеся в срок или в последний час перед сроком; фигурными скобками обозначены явления, наблюдавшиеся между сроками (за 1-3 часа до срока); квадратными скобками обозначены град или гололедные отложения с указанием их диаметра в мм.
Облачность - указаны через наклонную черту общая и нижняя облачность в баллах и высота нижней границы облаков в метрах; квадратными скобками обозначены формы облаков: Ci - перистые, Cs - перисто-слоистые, Cc - перисто-кучевые, Ac - высококучевые, As - высокослоистые, Sc - слоисто-кучевые, Ns - слоисто-дождевые, Cu - кучевые, Cb - кучево-дождевые. Подробнее классификацию облаков см. в Атласе облаков (PDF).
T - Температура воздуха - температура, измеренная на высоте 2 м над землей.
Td - Температура точки росы - температура, при понижении до которой содержащийся в воздухе водяной пар достигнет насыщения.
f - Относительная влажность воздуха - влажноcть воздуха, измеренная на высоте 2 м над землей.
Te - Эффективная температура - температура, которую ощущает одетый по сезону человек в тени. Характеристика душности погоды. При расчете учитывается влияние влажности воздуха и скорости ветра на теплоощущения человека.
Tes - Эффективная температура на солнце - температура, которую ощущает человек, с поправкой на солнечный нагрев. Характеристика знойности погоды. Зависит от высоты солнца над горизонтом, облачности и скорости ветра. Ночью, в пасмурную погоду, а также при ветре 12 м/с и более поправка равна нулю.
P - Атмосферное давление - приведенное к уровню моря атмосферное давление.
Po - Атмосферное давление - измеренное на уровне метеостанции атмосферное давление.
Tmin - Минимальная температура - минимум температуры воздуха на высоте 2 м над землей.
Tmax - Максимальная температура - максимум температуры воздуха на высоте 2 м над землей.
R - Количество осадков - Количество выпавших осадков за период времени, мм. При наведении курсора мыши на число - период времени, за который выпало указанное количество осадков.
R24 - Количество осадков - Количество выпавших осадков за 24 часа, мм.
S - Снежный покров - Высота снежного покрова, см. При наведении курсора мыши на число - состояние снежного покрова и степень покрытия местности в баллах.